Overview Statistics Trail Chart Weather Telemetry Raw packets
 

This is the latest recevied weather packets stored in our database for station/object IZ7EXI-13. If no packets are shown the sender has not sent any weather packets the latest 10 day(s).

<< 26 27 28 29 30 31 32 >>
Time Temp. Humidity Pressure Rain* Wind** Luminosity Snow
1788176177 33.33° C 62% 1016.5 hPa - - - -
1788175314 33.89° C 60% 1016.5 hPa - - - -
1788175277 33.89° C 60% 1016.5 hPa - - - -
1788174413 33.33° C 60% 1016.6 hPa - - - -
1788174376 33.33° C 60% 1016.6 hPa - - - -
1788173745 32.78° C 63% 1016.8 hPa - - - -
1788173717 32.78° C 63% 1016.8 hPa - - - -
1788173475 32.78° C 63% 1016.8 hPa - - - -
1788172566 32.78° C 63% 1016.8 hPa - - - -
1788171662 32.22° C 65% 1016.9 hPa - - - -
1788170797 31.67° C 66% 1016.9 hPa - - - -
1788170761 31.67° C 66% 1016.9 hPa - - - -
1788169861 31.11° C 67% 1016.8 hPa - - - -
1788168991 31.11° C 66% 1016.7 hPa - - - -
1788168961 31.11° C 66% 1016.7 hPa - - - -
1788168061 31.11° C 65% 1016.6 hPa - - - -
1788167160 31.11° C 64% 1016.9 hPa - - - -
1788166260 30.56° C 65% 1016.8 hPa - - - -
1788165360 31.11° C 64% 1016.7 hPa - - - -
1788164460 30.56° C 64% 1016.7 hPa - - - -
1788163593 30.56° C 68% 1016.7 hPa - - - -
1788163559 30.56° C 68% 1016.7 hPa - - - -
1788162659 30.56° C 69% 1016.8 hPa - - - -
1788161759 30° C 71% 1016.8 hPa - - - -
1788160859 29.44° C 73% 1016.7 hPa - - - -

* Rain since midnight (hover to see other rain measurements)
** Current wind speed in m/s (hover to see current wind gust speed)